Regional Weather Roundup
Issued by NWS

Home | Current Version | Previous Version | Graphics & Text | Print | Product List | Glossary On
Versions: 1 2 3 4 5 6 7 8 9 10 11 12 13 14 15 16 17 18 19 20 21 22 23 24 25 26 27 28 29 30 31 32 33 34 35 36 37 38 39 40 41 42 43 44 45 46 47 48 49 50
000
ASUS43 KFSD 140202
RWRSD

WEATHER ROUNDUP FOR SOUTH DAKOTA
NATIONAL WEATHER SERVICE SIOUX FALLS SD
800 PM CST SAT FEB 13 2016

NOTE: "FAIR" INDICATES FEW OR NO CLOUDS BELOW 12,000 FEET WITH NO
SIGNIFICANT WEATHER AND/OR OBSTRUCTIONS TO VISIBILITY.


SDZ001>005-009-010-012>017-140300-
NORTHWEST AND NORTH CENTRAL SOUTH DAKOTA

CITY           SKY/WX    TMP DP  RH WIND       PRES   REMARKS
BUFFALO          N/A     35  33  92 W15       29.76S WCI  25
FAITH            N/A     29  26  89 CALM      29.83S
MOBRIDGE       LGT SNOW  20  16  84 SE14      29.88F VSB 3/4 WCI   7
$$

SDZ012>016-024>037-041>051-057-063-072>074-140300-
SOUTHWEST AND SOUTH CENTRAL SOUTH DAKOTA

CITY           SKY/WX    TMP DP  RH WIND       PRES   REMARKS
RAPID CTY ARPT LGT RAIN  37  34  89 NW30G39   29.86R
PIERRE         CLOUDY    26  22  84 S6        29.91R WCI  19
CUSTER         CLOUDY    33  24  69 NW21G32   29.81F WCI  21
ELLSWORTH AFB  LGT RAIN  36  35  98 NW23      29.85
PHILIP         CLOUDY    35  29  78 N9        29.83R WCI  28
PINE RIDGE     CLOUDY    40  32  73 NW36G45   29.85R
WINNER         CLOUDY    27  19  72 S24G32    29.86F WCI  12
$$

SDZ004>011-016>023-039-040-140300-
NORTHEAST SOUTH DAKOTA

CITY           SKY/WX    TMP DP  RH WIND       PRES   REMARKS
ABERDEEN       LGT SNOW  15   9  76 SE23G32   30.03F WCI  -3
WATERTOWN      FLURRIES  10   3  73 SE24G31   30.04F WCI -10
BROOKINGS      LGT SNOW   9   4  80 S22G33    30.10F WCI -11
SISSETON         N/A     10   3  73 S25G31    30.11F WCI -11
$$

SDZ017-020-022-023-036>040-048>070-140300-
SOUTHEAST SOUTH DAKOTA

CITY           SKY/WX    TMP DP  RH WIND       PRES   REMARKS
SIOUX FALLS    LGT SNOW  11   7  84 S20       30.17F FOG     WCI  -7
HURON          CLOUDY    13   8  81 SE22G36   30.03F WCI  -6
MITCHELL       LGT SNOW  13   9  84 SE31G43   30.04F FOG     WCI  -9
YANKTON        CLOUDY    14   7  73 SE17      30.16F WCI  -3
$$

ABBREVIATIONS USED IN REMARKS
   TC - TEMPERATURE IN CELSIUS
  WCI - WIND CHILL INDEX
   HX - HEAT INDEX
  VSB - VISIBILITY




USA.gov is the U.S. government's official web portal to all federal, state and local government web resources and services.